Tracking 19909 objects as of 22-Oct-2019
HD Live streaming from Space Station
objects crossing your sky now

SL-3 R/B

Track SL-3 R/B now!
10-day predictions
SL-3 R/B is classified as:


NORAD ID: 13068
Int'l Code: 1982-013B
Perigee: 536.7 km
Apogee: 566.2 km
Inclination: 81.2 °
Period: 95.5 minutes
Semi major axis: 6922 km
RCS: 5.3655 m2 (large)
Launch date: February 19, 1982
Source: Commonwealth of Independent States (former USSR) (CIS)
Launch site: PLESETSK MISSILE AND SPACE COMPLEX (PKMTR)

Note: This is a ROCKET BODY
aabbcc
Your satellite tracking list
Your tracking list is empty




NASA's NSSDC Master Catalog

Two Line Element Set (TLE):
1 13068U 82013B   19294.86020972 -.00000299 +00000-0 -21303-4 0  9996
2 13068 081.2027 324.1294 0021328 011.5018 348.6688 15.07349274052278
Source of the keplerian elements: AFSPC